DC1MPP-9 Weather Reports


Display with metric or nautical units.
time (UTC)temp
F
wind
direction
speed
MPH
gust
MPH
rain 1hr
in
rain 24hr
in
rain mn
in
humidity
%
barometer
mb
20260901110142 81 0 0.0 0.0 0.00 0.00 0.00 42 964.0
20260901105741 79 0 0.0 0.0 0.00 0.00 0.00 43 964.0
20260901104939 82 0 0.0 0.0 0.00 0.00 0.00 40 964.0
20260901104538 82 0 0.0 0.0 0.00 0.00 0.00 46 964.0
20260901104137 82 0 0.0 0.0 0.00 0.00 0.00 44 965.0
20260901103735 82 0 0.0 0.0 0.00 0.00 0.00 44 965.0
20260901103334 81 0 0.0 0.0 0.00 0.00 0.00 42 965.0
20260901102933 81 0 0.0 0.0 0.00 0.00 0.00 44 965.0
20260901102532 80 0 0.0 0.0 0.00 0.00 0.00 42 965.0
20260901102131 80 0 0.0 0.0 0.00 0.00 0.00 44 965.0
20260901101730 80 0 0.0 0.0 0.00 0.00 0.00 43 965.0
20260901101329 78 0 0.0 0.0 0.00 0.00 0.00 45 965.0
20260901100928 80 0 0.0 0.0 0.00 0.00 0.00 43 965.0
20260901100527 81 0 0.0 0.0 0.00 0.00 0.00 44 965.0
20260901100126 81 0 0.0 0.0 0.00 0.00 0.00 42 965.0
20260901095725 81 0 0.0 0.0 0.00 0.00 0.00 41 965.0
20260901094923 80 0 0.0 0.0 0.00 0.00 0.00 47 965.0
20260901094522 80 0 0.0 0.0 0.00 0.00 0.00 46 965.0
20260901094121 79 0 0.0 0.0 0.00 0.00 0.00 51 965.0
20260901093720 79 0 0.0 0.0 0.00 0.00 0.00 48 965.0
20260901093319 79 0 0.0 0.0 0.00 0.00 0.00 46 965.0
20260901092115 78 0 0.0 0.0 0.00 0.00 0.00 46 965.0
20260901090511 79 0 0.0 0.0 0.00 0.00 0.00 50 965.0
20260901085709 78 0 0.0 0.0 0.00 0.00 0.00 53 965.0
20260901085308 77 0 0.0 0.0 0.00 0.00 0.00 51 965.0
20260901084105 76 0 0.0 0.0 0.00 0.00 0.00 49 965.0
20260901083704 76 0 0.0 0.0 0.00 0.00 0.00 56 965.0
20260901083303 75 0 0.0 0.0 0.00 0.00 0.00 52 965.0
20260901082902 75 0 0.0 0.0 0.00 0.00 0.00 56 965.0
20260901082059 74 0 0.0 0.0 0.00 0.00 0.00 59 965.0
20260901081658 74 0 0.0 0.0 0.00 0.00 0.00 68 965.0
20260901081257 73 0 0.0 0.0 0.00 0.00 0.00 61 965.0
20260901080455 73 0 0.0 0.0 0.00 0.00 0.00 67 965.0
20260901075252 72 0 0.0 0.0 0.00 0.00 0.00 75 965.0
20260901074851 72 0 0.0 0.0 0.00 0.00 0.00 80 965.0
20260901074049 70 0 0.0 0.0 0.00 0.00 0.00 78 965.0
20260901073648 71 0 0.0 0.0 0.00 0.00 0.00 82 965.0
20260901073247 70 0 0.0 0.0 0.00 0.00 0.00 81 965.0
20260901072846 70 0 0.0 0.0 0.00 0.00 0.00 79 965.0
20260901072445 70 0 0.0 0.0 0.00 0.00 0.00 79 965.0
20260901072044 70 0 0.0 0.0 0.00 0.00 0.00 89 965.0
20260901071241 69 0 0.0 0.0 0.00 0.00 0.00 86 965.0
20260901070439 68 0 0.0 0.0 0.00 0.00 0.00 92 965.0
20260901070038 68 0 0.0 0.0 0.00 0.00 0.00 99 965.0
20260901065637 67 0 0.0 0.0 0.00 0.00 0.00 95 965.0
20260901065236 67 0 0.0 0.0 0.00 0.00 0.00 10 965.0
20260901064835 66 0 0.0 0.0 0.00 0.00 0.00 10 965.0
20260901064434 66 0 0.0 0.0 0.00 0.00 0.00 10 965.0
20260901064033 65 0 0.0 0.0 0.00 0.00 0.00 10 965.0
20260901063632 65 0 0.0 0.0 0.00 0.00 0.00 10 965.0
20260901063231 65 0 0.0 0.0 0.00 0.00 0.00 10 965.0
20260901062830 64 0 0.0 0.0 0.00 0.00 0.00 10 965.0
20260901062429 63 0 0.0 0.0 0.00 0.00 0.00 10 965.0
20260901061627 62 0 0.0 0.0 0.00 0.00 0.00 10 965.0
20260901061226 62 0 0.0 0.0 0.00 0.00 0.00 10 965.0
20260901060824 62 0 0.0 0.0 0.00 0.00 0.00 10 965.0
20260901060423 62 0 0.0 0.0 0.00 0.00 0.00 10 965.0
20260901060022 61 0 0.0 0.0 0.00 0.00 0.00 10 965.0
20260901055621 61 0 0.0 0.0 0.00 0.00 0.00 10 965.0
20260901055221 61 0 0.0 0.0 0.00 0.00 0.00 10 965.0
20260901054418 60 0 0.0 0.0 0.00 0.00 0.00 10 965.0
20260901052814 60 0 0.0 0.0 0.00 0.00 0.00 10 965.0
20260901052413 60 0 0.0 0.0 0.00 0.00 0.00 10 965.0
20260901052012 59 0 0.0 0.0 0.00 0.00 0.00 10 965.0
20260901051611 59 0 0.0 0.0 0.00 0.00 0.00 10 964.0
20260901050809 59 0 0.0 0.0 0.00 0.00 0.00 10 964.0
20260901050006 59 0 0.0 0.0 0.00 0.00 0.00 10 964.0
20260901045605 59 0 0.0 0.0 0.00 0.00 0.00 10 964.0
20260901045204 59 0 0.0 0.0 0.00 0.00 0.00 10 964.0
20260901044803 59 0 0.0 0.0 0.00 0.00 0.00 10 964.0
20260901044402 59 0 0.0 0.0 0.00 0.00 0.00 10 964.0
20260901044001 59 0 0.0 0.0 0.00 0.00 0.00 10 964.0
20260901043600 59 0 0.0 0.0 0.00 0.00 0.00 10 964.0
20260901043159 59 0 0.0 0.0 0.00 0.00 0.00 10 964.0
20260901042758 59 0 0.0 0.0 0.00 0.00 0.00 10 964.0
20260901042357 59 0 0.0 0.0 0.00 0.00 0.00 10 964.0
20260901041956 59 0 0.0 0.0 0.00 0.00 0.00 10 964.0
20260901041555 59 0 0.0 0.0 0.00 0.00 0.00 10 964.0
20260901041154 59 0 0.0 0.0 0.00 0.00 0.00 10 964.0
20260901040755 60 0 0.0 0.0 0.00 0.00 0.00 10 964.0
20260901040352 60 0 0.0 0.0 0.00 0.00 0.00 10 964.0
20260901035950 60 0 0.0 0.0 0.00 0.00 0.00 10 964.0
20260901035549 60 0 0.0 0.0 0.00 0.00 0.00 10 964.0
20260901035148 60 0 0.0 0.0 0.00 0.00 0.00 10 964.0
20260901034747 60 0 0.0 0.0 0.00 0.00 0.00 10 964.0
20260901034346 60 0 0.0 0.0 0.00 0.00 0.00 10 964.0
20260901033945 60 0 0.0 0.0 0.00 0.00 0.00 10 964.0
20260901033544 60 0 0.0 0.0 0.00 0.00 0.00 10 964.0
20260901033143 61 0 0.0 0.0 0.00 0.00 0.00 10 964.0
20260901032742 61 0 0.0 0.0 0.00 0.00 0.00 10 964.0
20260901032341 61 0 0.0 0.0 0.00 0.00 0.00 10 964.0
20260901031539 61 0 0.0 0.0 0.00 0.00 0.00 10 964.0
20260901031138 61 0 0.0 0.0 0.00 0.00 0.00 10 964.0
20260901030737 61 0 0.0 0.0 0.00 0.00 0.00 10 964.0
20260901030336 61 0 0.0 0.0 0.00 0.00 0.00 10 964.0
20260901025935 62 0 0.0 0.0 0.00 0.00 0.00 10 964.0
20260901025533 62 0 0.0 0.0 0.00 0.00 0.00 10 964.0
20260901025132 62 0 0.0 0.0 0.00 0.00 0.00 10 964.0
20260901024731 62 0 0.0 0.0 0.00 0.00 0.00 10 964.0
20260901024330 62 0 0.0 0.0 0.00 0.00 0.00 10 964.0
20260901023929 62 0 0.0 0.0 0.00 0.00 0.00 10 964.0
20260901023528 62 0 0.0 0.0 0.00 0.00 0.00 10 964.0
20260901023127 62 0 0.0 0.0 0.00 0.00 0.00 10 964.0
20260901022726 62 0 0.0 0.0 0.00 0.00 0.00 10 964.0
20260901021924 62 0 0.0 0.0 0.00 0.00 0.00 10 964.0
20260901021523 62 0 0.0 0.0 0.00 0.00 0.00 10 964.0
20260901021122 62 0 0.0 0.0 0.00 0.00 0.00 10 964.0
20260901020721 62 0 0.0 0.0 0.00 0.00 0.00 10 964.0
20260901020320 63 0 0.0 0.0 0.00 0.00 0.00 10 964.0
20260901015919 63 0 0.0 0.0 0.00 0.00 0.00 10 964.0
20260901015116 63 0 0.0 0.0 0.00 0.00 0.00 10 964.0
20260901014314 63 0 0.0 0.0 0.00 0.00 0.00 10 964.0
20260901013913 63 0 0.0 0.0 0.00 0.00 0.00 10 964.0
20260901013512 63 0 0.0 0.0 0.00 0.00 0.00 10 964.0
20260901013111 63 0 0.0 0.0 0.00 0.00 0.00 10 964.0
20260901012710 63 0 0.0 0.0 0.00 0.00 0.00 10 964.0
20260901012309 63 0 0.0 0.0 0.00 0.00 0.00 10 964.0
20260901011908 63 0 0.0 0.0 0.00 0.00 0.00 10 964.0
20260901011507 63 0 0.0 0.0 0.00 0.00 0.00 10 964.0
20260901011106 63 0 0.0 0.0 0.00 0.00 0.00 10 964.0
20260901010705 63 0 0.0 0.0 0.00 0.00 0.00 10 964.0
20260901010304 63 0 0.0 0.0 0.00 0.00 0.00 10 964.0
20260901005903 63 0 0.0 0.0 0.00 0.00 0.00 10 964.0
20260901005501 63 0 0.0 0.0 0.00 0.00 0.00 10 964.0
20260901005100 63 0 0.0 0.0 0.00 0.00 0.00 10 964.0
20260901004659 63 0 0.0 0.0 0.00 0.00 0.00 10 964.0
20260901004258 63 0 0.0 0.0 0.00 0.00 0.00 10 964.0
20260901003456 63 0 0.0 0.0 0.00 0.00 0.00 10 964.0
20260901003055 63 0 0.0 0.0 0.00 0.00 0.00 10 964.0
20260901002654 63 0 0.0 0.0 0.00 0.00 0.00 10 964.0
20260901002253 63 0 0.0 0.0 0.00 0.00 0.00 10 964.0
20260901001050 63 0 0.0 0.0 0.00 0.00 0.00 10 964.0
20260901000649 63 0 0.0 0.0 0.00 0.00 0.00 10 964.0
20260901000248 63 0 0.0 0.0 0.00 0.00 0.00 10 964.0
20260831235445 63 0 0.0 0.0 0.00 0.00 0.00 10 964.0
20260831235044 63 0 0.0 0.0 0.00 0.00 0.00 10 964.0
20260831234643 63 0 0.0 0.0 0.00 0.00 0.00 10 964.0
20260831234242 63 0 0.0 0.0 0.00 0.00 0.00 10 964.0
20260831233841 63 0 0.0 0.0 0.00 0.00 0.00 10 964.0
20260831233039 63 0 0.0 0.0 0.00 0.00 0.00 10 964.0
20260831232638 63 0 0.0 0.0 0.00 0.00 0.00 97 964.0
20260831232237 63 0 0.0 0.0 0.00 0.00 0.00 97 964.0
20260831231836 63 0 0.0 0.0 0.00 0.00 0.00 98 964.0
20260831231435 64 0 0.0 0.0 0.00 0.00 0.00 97 964.0
20260831231034 64 0 0.0 0.0 0.00 0.00 0.00 97 964.0
20260831230633 64 0 0.0 0.0 0.00 0.00 0.00 97 964.0
20260831230232 64 0 0.0 0.0 0.00 0.00 0.00 96 964.0
20260831225831 64 0 0.0 0.0 0.00 0.00 0.00 96 964.0
20260831225430 64 0 0.0 0.0 0.00 0.00 0.00 95 964.0
20260831225028 64 0 0.0 0.0 0.00 0.00 0.00 97 964.0
20260831224627 64 0 0.0 0.0 0.00 0.00 0.00 95 964.0
20260831224226 64 0 0.0 0.0 0.00 0.00 0.00 93 964.0
20260831223825 64 0 0.0 0.0 0.00 0.00 0.00 92 964.0
20260831223424 64 0 0.0 0.0 0.00 0.00 0.00 92 964.0
20260831223023 64 0 0.0 0.0 0.00 0.00 0.00 92 964.0
20260831222622 64 0 0.0 0.0 0.00 0.00 0.00 91 964.0
20260831222221 64 0 0.0 0.0 0.00 0.00 0.00 92 964.0
20260831221820 65 0 0.0 0.0 0.00 0.00 0.00 90 964.0
20260831221419 65 0 0.0 0.0 0.00 0.00 0.00 90 964.0
20260831221018 65 0 0.0 0.0 0.00 0.00 0.00 87 964.0
20260831220617 65 0 0.0 0.0 0.00 0.00 0.00 86 964.0
20260831220216 65 0 0.0 0.0 0.00 0.00 0.00 87 964.0
20260831215815 65 0 0.0 0.0 0.00 0.00 0.00 84 964.0
20260831215414 65 0 0.0 0.0 0.00 0.00 0.00 86 964.0
20260831215013 66 0 0.0 0.0 0.00 0.00 0.00 83 964.0
20260831214612 66 0 0.0 0.0 0.00 0.00 0.00 81 964.0
20260831214210 65 0 0.0 0.0 0.00 0.00 0.00 84 964.0
20260831213809 66 0 0.0 0.0 0.00 0.00 0.00 86 964.0
20260831213408 65 0 0.0 0.0 0.00 0.00 0.00 84 964.0
20260831213007 65 0 0.0 0.0 0.00 0.00 0.00 89 964.0
20260831212606 66 0 0.0 0.0 0.00 0.00 0.00 88 963.0
20260831212205 66 0 0.0 0.0 0.00 0.00 0.00 86 963.0
20260831211804 66 0 0.0 0.0 0.00 0.00 0.00 87 963.0
20260831211403 66 0 0.0 0.0 0.00 0.00 0.00 86 963.0
20260831211002 66 0 0.0 0.0 0.00 0.00 0.00 88 963.0
20260831210601 66 0 0.0 0.0 0.00 0.00 0.00 86 963.0
20260831210200 67 0 0.0 0.0 0.00 0.00 0.00 85 963.0
20260831205759 67 0 0.0 0.0 0.00 0.00 0.00 83 963.0
20260831205358 67 0 0.0 0.0 0.00 0.00 0.00 85 963.0
20260831204957 67 0 0.0 0.0 0.00 0.00 0.00 84 963.0
20260831204556 67 0 0.0 0.0 0.00 0.00 0.00 83 963.0
20260831204155 67 0 0.0 0.0 0.00 0.00 0.00 83 963.0
20260831203753 67 0 0.0 0.0 0.00 0.00 0.00 80 963.0
20260831202951 68 0 0.0 0.0 0.00 0.00 0.00 82 963.0
20260831202550 68 0 0.0 0.0 0.00 0.00 0.00 80 963.0
20260831202149 68 0 0.0 0.0 0.00 0.00 0.00 77 963.0
20260831201748 68 0 0.0 0.0 0.00 0.00 0.00 76 963.0
20260831201347 68 0 0.0 0.0 0.00 0.00 0.00 72 963.0
20260831200946 69 0 0.0 0.0 0.00 0.00 0.00 75 963.0
20260831200545 69 0 0.0 0.0 0.00 0.00 0.00 76 962.0
20260831200144 69 0 0.0 0.0 0.00 0.00 0.00 78 963.0
20260831195743 69 0 0.0 0.0 0.00 0.00 0.00 77 962.0
20260831195342 69 0 0.0 0.0 0.00 0.00 0.00 80 962.0
20260831194941 69 0 0.0 0.0 0.00 0.00 0.00 80 962.0
20260831194540 69 0 0.0 0.0 0.00 0.00 0.00 79 962.0
20260831194138 69 0 0.0 0.0 0.00 0.00 0.00 78 962.0
20260831192935 69 0 0.0 0.0 0.00 0.00 0.00 77 962.0
20260831192534 69 0 0.0 0.0 0.00 0.00 0.00 74 962.0
20260831192133 70 0 0.0 0.0 0.00 0.00 0.00 73 962.0
20260831191732 70 0 0.0 0.0 0.00 0.00 0.00 77 962.0
20260831191331 70 0 0.0 0.0 0.00 0.00 0.00 74 962.0
20260831190930 70 0 0.0 0.0 0.00 0.00 0.00 73 962.0
20260831190529 70 0 0.0 0.0 0.00 0.00 0.00 73 962.0
20260831190128 70 0 0.0 0.0 0.00 0.00 0.00 70 962.0
20260831185727 70 0 0.0 0.0 0.00 0.00 0.00 70 962.0
20260831184925 70 0 0.0 0.0 0.00 0.00 0.00 65 961.0
20260831184524 71 0 0.0 0.0 0.00 0.00 0.00 66 961.0
20260831184122 71 0 0.0 0.0 0.00 0.00 0.00 65 961.0
20260831183721 71 0 0.0 0.0 0.00 0.00 0.00 63 961.0
20260831183320 71 0 0.0 0.0 0.00 0.00 0.00 64 961.0
20260831182919 71 0 0.0 0.0 0.00 0.00 0.00 65 961.0
20260831182518 71 0 0.0 0.0 0.00 0.00 0.00 63 961.0
20260831182117 72 0 0.0 0.0 0.00 0.00 0.00 61 961.0
20260831181716 72 0 0.0 0.0 0.00 0.00 0.00 61 961.0
20260831181315 72 0 0.0 0.0 0.00 0.00 0.00 59 961.0
20260831180513 73 0 0.0 0.0 0.00 0.00 0.00 59 960.0
20260831180112 73 0 0.0 0.0 0.00 0.00 0.00 56 960.0
20260831175711 73 0 0.0 0.0 0.00 0.00 0.00 54 961.0
20260831175310 73 0 0.0 0.0 0.00 0.00 0.00 53 960.0
20260831174909 74 0 0.0 0.0 0.00 0.00 0.00 51 960.0
20260831174106 74 0 0.0 0.0 0.00 0.00 0.00 45 960.0
20260831173705 74 0 0.0 0.0 0.00 0.00 0.00 46 960.0
20260831173304 74 0 0.0 0.0 0.00 0.00 0.00 47 960.0
20260831172903 74 0 0.0 0.0 0.00 0.00 0.00 47 960.0
20260831172101 75 0 0.0 0.0 0.00 0.00 0.00 43 960.0
20260831171700 75 0 0.0 0.0 0.00 0.00 0.00 44 960.0
20260831170858 76 0 0.0 0.0 0.00 0.00 0.00 41 960.0
20260831165254 76 0 0.0 0.0 0.00 0.00 0.00 46 960.0
20260831164451 77 0 0.0 0.0 0.00 0.00 0.00 41 960.0
20260831164050 77 0 0.0 0.0 0.00 0.00 0.00 45 960.0
20260831163248 77 0 0.0 0.0 0.00 0.00 0.00 45 960.0
20260831162847 77 0 0.0 0.0 0.00 0.00 0.00 43 960.0
20260831162045 77 0 0.0 0.0 0.00 0.00 0.00 42 960.0
20260831161644 77 0 0.0 0.0 0.00 0.00 0.00 43 960.0
20260831161243 77 0 0.0 0.0 0.00 0.00 0.00 44 960.0
20260831160842 77 0 0.0 0.0 0.00 0.00 0.00 42 960.0
20260831160441 77 0 0.0 0.0 0.00 0.00 0.00 42 960.0
20260831160040 77 0 0.0 0.0 0.00 0.00 0.00 42 960.0
20260831155639 78 0 0.0 0.0 0.00 0.00 0.00 39 959.0
20260831155238 78 0 0.0 0.0 0.00 0.00 0.00 41 960.0
20260831154836 78 0 0.0 0.0 0.00 0.00 0.00 40 959.0
20260831154435 78 0 0.0 0.0 0.00 0.00 0.00 39 959.0
20260831154034 77 0 0.0 0.0 0.00 0.00 0.00 39 959.0
20260831153633 78 0 0.0 0.0 0.00 0.00 0.00 41 960.0
20260831153232 78 0 0.0 0.0 0.00 0.00 0.00 42 959.0
20260831152831 78 0 0.0 0.0 0.00 0.00 0.00 39 960.0
20260831152430 79 0 0.0 0.0 0.00 0.00 0.00 38 960.0
20260831151628 79 0 0.0 0.0 0.00 0.00 0.00 40 960.0
20260831150425 79 0 0.0 0.0 0.00 0.00 0.00 42 960.0
20260831150024 80 0 0.0 0.0 0.00 0.00 0.00 40 960.0
20260831145623 79 0 0.0 0.0 0.00 0.00 0.00 38 960.0
20260831145221 80 0 0.0 0.0 0.00 0.00 0.00 37 960.0
20260831144820 80 0 0.0 0.0 0.00 0.00 0.00 39 960.0
20260831144419 80 0 0.0 0.0 0.00 0.00 0.00 38 960.0
20260831144018 80 0 0.0 0.0 0.00 0.00 0.00 38 960.0
20260831143617 80 0 0.0 0.0 0.00 0.00 0.00 39 960.0
20260831143216 80 0 0.0 0.0 0.00 0.00 0.00 39 960.0
20260831142815 80 0 0.0 0.0 0.00 0.00 0.00 37 960.0
20260831142414 81 0 0.0 0.0 0.00 0.00 0.00 41 960.0
20260831142013 80 0 0.0 0.0 0.00 0.00 0.00 39 960.0
20260831141612 79 0 0.0 0.0 0.00 0.00 0.00 38 960.0
20260831141211 80 0 0.0 0.0 0.00 0.00 0.00 40 960.0
20260831140810 80 0 0.0 0.0 0.00 0.00 0.00 38 960.0
20260831140008 81 0 0.0 0.0 0.00 0.00 0.00 37 960.0
20260831135205 82 0 0.0 0.0 0.00 0.00 0.00 35 960.0
20260831134403 82 0 0.0 0.0 0.00 0.00 0.00 37 960.0
20260831134002 82 0 0.0 0.0 0.00 0.00 0.00 36 960.0
20260831133601 82 0 0.0 0.0 0.00 0.00 0.00 35 960.0
20260831133200 82 0 0.0 0.0 0.00 0.00 0.00 37 960.0
20260831132759 82 0 0.0 0.0 0.00 0.00 0.00 40 960.0
20260831132358 81 0 0.0 0.0 0.00 0.00 0.00 37 960.0
20260831131957 82 0 0.0 0.0 0.00 0.00 0.00 36 960.0
20260831131556 82 0 0.0 0.0 0.00 0.00 0.00 38 960.0
20260831131155 80 0 0.0 0.0 0.00 0.00 0.00 37 960.0
20260831130754 82 0 0.0 0.0 0.00 0.00 0.00 37 960.0
20260831130353 83 0 0.0 0.0 0.00 0.00 0.00 36 960.0
20260831125952 82 0 0.0 0.0 0.00 0.00 0.00 40 960.0
20260831125550 82 0 0.0 0.0 0.00 0.00 0.00 40 960.0
20260831125149 82 0 0.0 0.0 0.00 0.00 0.00 38 960.0
20260831124748 83 0 0.0 0.0 0.00 0.00 0.00 42 960.0
20260831124347 83 0 0.0 0.0 0.00 0.00 0.00 46 960.0
20260831123946 81 0 0.0 0.0 0.00 0.00 0.00 45 960.0
20260831123545 82 0 0.0 0.0 0.00 0.00 0.00 46 960.0
20260831123144 82 0 0.0 0.0 0.00 0.00 0.00 43 960.0
20260831122743 82 0 0.0 0.0 0.00 0.00 0.00 45 960.0
20260831122342 83 0 0.0 0.0 0.00 0.00 0.00 46 960.0
20260831121941 83 0 0.0 0.0 0.00 0.00 0.00 45 960.0
20260831121540 82 0 0.0 0.0 0.00 0.00 0.00 50 960.0
20260831121139 81 0 0.0 0.0 0.00 0.00 0.00 52 960.0
20260831120738 81 0 0.0 0.0 0.00 0.00 0.00 49 960.0
20260831120337 81 0 0.0 0.0 0.00 0.00 0.00 54 960.0
20260831115936 80 0 0.0 0.0 0.00 0.00 0.00 51 960.0
20260831115534 81 0 0.0 0.0 0.00 0.00 0.00 52 960.0
20260831115133 81 0 0.0 0.0 0.00 0.00 0.00 50 960.0
20260831114732 81 0 0.0 0.0 0.00 0.00 0.00 51 960.0
20260831114331 80 0 0.0 0.0 0.00 0.00 0.00 48 960.0
20260831113930 80 0 0.0 0.0 0.00 0.00 0.00 51 960.0
20260831113529 82 0 0.0 0.0 0.00 0.00 0.00 50 960.0
20260831113128 83 0 0.0 0.0 0.00 0.00 0.00 49 960.0
20260831112727 83 0 0.0 0.0 0.00 0.00 0.00 48 960.0
20260831111925 81 0 0.0 0.0 0.00 0.00 0.00 47 960.0
20260831111524 81 0 0.0 0.0 0.00 0.00 0.00 48 960.0